Sparta, TN

6:28 AM CDT on September 20, 2017 (GMT -0500)
Upper Cumberland Regional

Weather History for KSRB - October, 2012

Change the Weather History Date:

Tuesday, October 9, 2012

  Actual Average (KCSV) Record (KCSV)
Temperature  
Mean Temperature 46 °F -  
Max Temperature 60 °F 67 °F 83 °F (1980)
Min Temperature 32 °F 46 °F 29 °F (2000)
Degree Days  
Heating Degree Days 19    
Moisture  
Dew Point 43 °F    
Average Humidity 90    
Maximum Humidity 100    
Minimum Humidity 63    
Precipitation  
Precipitation 0.00 in - - ()
Sea Level Pressure  
Sea Level Pressure 30.12 in    
Wind  
Wind Speed 1 mph ()    
Max Wind Speed 8 mph    
Max Gust Speed -    
Visibility 8.2 miles    
Events      
Averages and records for this station are not official NWS values.
T = Trace of Precipitation, MM = Missing Value Source: Averaged Metar Reports

Daily Weather History Graph

Daily Weather History Graph

Search for Another Location

Airport or City:

Trip Planner

Search our weather history database for the weather conditions in past years. The results will help you decide how hot, cold, wet, or windy it might be!

Date:

Astronomy

Oct. 09, 2012 Rise Set
Actual Time 6:44 AM CDT 6:13 PM CDT
Civil Twilight 6:18 AM CDT 6:39 PM CDT
Nautical Twilight 5:48 AM CDT 7:09 PM CDT
Astronomical Twilight 5:19 AM CDT 7:38 PM CDT
Moon 12:30 AM CDT (10/9) 2:30 PM CDT (10/9)
Length of Visible Light 12h 20m
Length of Day
11h 29m
Last Quarter, 36% of the Moon is Illuminated
Oct 9
Last Quarter
Oct 15
New
Oct 21
First Quarter
Oct 29
Full
Nov 6
Last Quarter

Hourly Weather History & Observations

Time (CDT) Temp. Windchill Dew Point Humidity Pressure Visibility Wind Dir Wind Speed Gust Speed Precip Events Conditions
12:15 AM 37.4 °F - 35.6 °F 93% 30.16 in 8.0 mi Calm Calm - N/A   Clear
12:35 AM 37.4 °F - 35.6 °F 93% 30.16 in 4.0 mi Calm Calm - N/A   Clear
12:55 AM 35.6 °F - 35.6 °F 100% 30.15 in 2.5 mi Calm Calm - N/A   Clear
1:15 AM 35.6 °F - 35.6 °F 100% 30.16 in 10.0 mi Calm Calm - N/A   Clear
1:35 AM 35.6 °F - 35.6 °F 100% 30.16 in 3.0 mi Calm Calm - N/A   Clear
1:55 AM 35.6 °F - 35.6 °F 100% 30.16 in 7.0 mi Calm Calm - N/A   Clear
2:15 AM 35.6 °F - 35.6 °F 100% 30.16 in 6.0 mi Calm Calm - N/A   Clear
2:55 AM 33.8 °F - 33.8 °F 100% 30.15 in 8.0 mi Calm Calm - N/A   Clear
3:15 AM 33.8 °F - 33.8 °F 100% 30.15 in 10.0 mi Calm Calm - N/A   Clear
3:35 AM 33.8 °F - 33.8 °F 100% 30.14 in 1.5 mi Calm Calm - N/A   Clear
4:15 AM 33.8 °F - 33.8 °F 100% 30.15 in 8.0 mi Calm Calm - N/A   Clear
4:35 AM 33.8 °F - 33.8 °F 100% 30.15 in 10.0 mi Calm Calm - N/A   Clear
4:55 AM 33.8 °F - 33.8 °F 100% 30.16 in 10.0 mi Calm Calm - N/A   Clear
5:15 AM 33.8 °F - 33.8 °F 100% 30.16 in 4.0 mi Calm Calm - N/A   Clear
5:35 AM 33.8 °F - 33.8 °F 100% 30.17 in 10.0 mi Calm Calm - N/A   Clear
5:55 AM 32.0 °F - 32.0 °F 100% 30.17 in 3.0 mi Calm Calm - N/A   Clear
6:15 AM 33.8 °F - 32.0 °F 93% 30.17 in 1.0 mi Calm Calm - N/A   Unknown
6:35 AM 33.8 °F - 33.8 °F 100% 30.17 in 0.8 mi Calm Calm - N/A   Mostly Cloudy
6:55 AM 32.0 °F - 32.0 °F 100% 30.17 in 0.5 mi Calm Calm - N/A   Mostly Cloudy
7:15 AM 33.8 °F - 33.8 °F 100% 30.17 in 0.5 mi Calm Calm - N/A   Mostly Cloudy
7:35 AM 35.6 °F - 35.6 °F 100% 30.18 in 1.8 mi Calm Calm - N/A   Unknown
7:55 AM 35.6 °F - 35.6 °F 100% 30.18 in 2.5 mi Calm Calm - N/A   Partly Cloudy
8:15 AM 37.4 °F - 35.6 °F 93% 30.18 in 0.5 mi Calm Calm - N/A   Overcast
8:35 AM 39.2 °F - 39.2 °F 100% 30.18 in 1.2 mi Calm Calm - N/A   Mostly Cloudy
8:55 AM 42.8 °F - 42.8 °F 100% 30.18 in 10.0 mi Calm Calm - N/A   Partly Cloudy
9:15 AM 44.6 °F - 44.6 °F 100% 30.17 in 10.0 mi Calm Calm - N/A   Clear
9:35 AM 46.4 °F - 46.4 °F 100% 30.17 in 10.0 mi Calm Calm - N/A   Clear
9:55 AM 48.2 °F - 46.4 °F 93% 30.17 in 10.0 mi Calm Calm - N/A   Clear
10:15 AM 51.8 °F - 48.2 °F 88% 30.17 in 10.0 mi Calm Calm - N/A   Clear
10:35 AM 53.6 °F - 46.4 °F 77% 30.17 in 10.0 mi Variable 3.5 mph - N/A   Clear
10:55 AM 53.6 °F - 48.2 °F 82% 30.16 in 10.0 mi Calm Calm - N/A   Clear
11:15 AM 53.6 °F - 46.4 °F 77% 30.16 in 10.0 mi Calm Calm - N/A   Mostly Cloudy
11:35 AM 53.6 °F - 46.4 °F 77% 30.16 in 10.0 mi Variable 3.5 mph - N/A   Mostly Cloudy
11:55 AM 55.4 °F - 46.4 °F 72% 30.15 in 10.0 mi Variable 6.9 mph - N/A   Mostly Cloudy
12:15 PM 57.2 °F - 48.2 °F 72% 30.15 in 10.0 mi SSW 5.8 mph - N/A   Overcast
12:35 PM 55.4 °F - 46.4 °F 72% 30.14 in 10.0 mi Variable 3.5 mph - N/A   Mostly Cloudy
12:55 PM 57.2 °F - 48.2 °F 72% 30.13 in 10.0 mi SSE 3.5 mph - N/A   Scattered Clouds
1:15 PM 55.4 °F - 46.4 °F 72% 30.11 in 10.0 mi Calm Calm - N/A   Partly Cloudy
1:35 PM 57.2 °F - 48.2 °F 72% 30.11 in 10.0 mi Variable 4.6 mph - N/A   Scattered Clouds
1:55 PM 59.0 °F - 48.2 °F 67% 30.10 in 10.0 mi SSW 5.8 mph - N/A   Scattered Clouds
2:15 PM 57.2 °F - 48.2 °F 72% 30.09 in 10.0 mi SSE 3.5 mph - N/A   Partly Cloudy
2:35 PM 57.2 °F - 48.2 °F 72% 30.09 in 10.0 mi Variable 5.8 mph - N/A   Partly Cloudy
2:55 PM 60.8 °F - 48.2 °F 63% 30.08 in 10.0 mi South 8.1 mph - N/A   Partly Cloudy
3:15 PM 60.8 °F - 50.0 °F 68% 30.07 in 10.0 mi SE 3.5 mph - N/A   Unknown
3:35 PM 60.8 °F - 50.0 °F 68% 30.06 in 10.0 mi Variable 6.9 mph - N/A   Partly Cloudy
3:55 PM 60.8 °F - 50.0 °F 68% 30.06 in 10.0 mi SSE 8.1 mph - N/A   Clear
4:15 PM 60.8 °F - 50.0 °F 68% 30.06 in 10.0 mi SW 3.5 mph - N/A   Clear
4:35 PM 60.8 °F - 50.0 °F 68% 30.05 in 10.0 mi Calm Calm - N/A   Clear
4:55 PM 60.8 °F - 50.0 °F 68% 30.05 in 10.0 mi SSE 5.8 mph - N/A   Clear
5:15 PM 59.0 °F - 50.0 °F 72% 30.05 in 10.0 mi South 4.6 mph - N/A   Clear
5:35 PM 59.0 °F - 50.0 °F 72% 30.05 in 10.0 mi South 3.5 mph - N/A   Clear
5:55 PM 57.2 °F - 50.0 °F 77% 30.05 in 10.0 mi SSW 3.5 mph - N/A   Clear
6:15 PM 53.6 °F - 50.0 °F 88% 30.05 in 10.0 mi Calm Calm - N/A   Clear
6:35 PM 50.0 °F - 50.0 °F 100% 30.05 in 10.0 mi Calm Calm - N/A   Clear
6:55 PM 48.2 °F - 48.2 °F 100% 30.05 in 10.0 mi Calm Calm - N/A   Clear
7:15 PM 46.4 °F - 46.4 °F 100% 30.05 in 10.0 mi Calm Calm - N/A   Clear
7:35 PM 46.4 °F - 46.4 °F 100% 30.05 in 10.0 mi Calm Calm - N/A   Clear
7:55 PM 46.4 °F - 46.4 °F 100% 30.06 in 10.0 mi Calm Calm - N/A   Clear
8:15 PM 44.6 °F - 44.6 °F 100% 30.06 in 10.0 mi Calm Calm - N/A   Clear
8:35 PM 44.6 °F - 44.6 °F 100% 30.06 in 10.0 mi Calm Calm - N/A   Clear
8:55 PM 50.0 °F - 48.2 °F 94% 30.06 in 10.0 mi South 5.8 mph - N/A   Clear
9:15 PM 46.4 °F 45.2 °F 46.4 °F 100% 30.07 in 10.0 mi South 3.5 mph - N/A   Clear
9:35 PM 48.2 °F - 48.2 °F 100% 30.07 in 10.0 mi South 3.5 mph - N/A   Clear
9:55 PM 48.2 °F - 48.2 °F 100% 30.06 in 10.0 mi South 5.8 mph - N/A   Clear
10:15 PM 48.2 °F - 48.2 °F 100% 30.06 in 10.0 mi South 4.6 mph - N/A   Clear
10:35 PM 48.2 °F - 48.2 °F 100% 30.06 in 10.0 mi South 6.9 mph - N/A   Clear
10:55 PM 48.2 °F - 48.2 °F 100% 30.05 in 10.0 mi South 6.9 mph - N/A   Clear
11:15 PM 48.2 °F - 48.2 °F 100% 30.05 in 10.0 mi South 5.8 mph - N/A   Clear
11:35 PM 48.2 °F - 48.2 °F 100% 30.04 in 10.0 mi South 3.5 mph - N/A   Clear
11:55 PM 48.2 °F - 48.2 °F 100% 30.04 in 10.0 mi South 4.6 mph - N/A   Clear